Flag Weather past 2 weeks in West Bromwich, England, United Kingdom

Now
48 °F

Fog.


Feels Like: 45 °F
Forecast: 43 / 50 °F
Wind: 7 mph from East

Location: Birmingham / Airport

Current Time: Nov 28, 2014 at 6:02:23 AM

Latest Report: Nov 28, 2014 at 5:20 AM


Visibility: 2 mi

Pressure: 29.59 "Hg

Humidity: 100%

Dew point: 48 °F

Location of West BromwichLocation

Historic Weather in West Bromwich — Graph

°F

West Bromwich temperature yesterday

Maximum temperature yesterday: 46 °F (at 12:50 PM)
Minimum temperature yesterday: 41 °F (at 6:50 PM)
Average temperature yesterday: 45 °F

Past Weeks' High & Low Weather Summary

 TemperatureHumidityPressure
High57 °F (Nov 22, 11:50 AM)100% (Nov 13, 4:20 AM)30.33 "Hg (Nov 13, 4:20 AM)
Low27 °F (Nov 25, 6:20 AM)71% (Nov 24, 2:20 PM)29.36 "Hg (Nov 14, 6:20 AM)
Average45 °F94%29.84 "Hg
* Reported Nov 13 4:20 AM — Nov 28 4:50 AM, West Bromwich, Weather by CustomWeather, © 2014

Note: Actual official high and low records may vary slightly from our data, if they occured in-between our weather recording intervals... More about our weather records

Advertising

West Bromwich weather history for previous 24 hours

 ConditionsComfort  
Time TempWeatherWind HumidityBarometerVisibility
4:50 AM
Nov 28
48 °FFog.8 mph100%29.59 "Hg2 mi
4:20 AM48 °FFog.9 mph100%29.59 "Hg2 mi
3:50 AM48 °FFog.10 mph94%29.59 "Hg2 mi
3:20 AM48 °FFog.10 mph94%29.59 "Hg2 mi
2:50 AM48 °FFog.9 mph94%29.59 "Hg2 mi
2:20 AM48 °FFog.8 mph94%29.59 "Hg2 mi
1:50 AM46 °FFog.7 mph100%29.59 "Hg2 mi
1:20 AM46 °FFog.8 mph100%29.59 "Hg2 mi
12:50 AM46 °FFog.7 mph100%29.59 "Hg2 mi
12:20 AM46 °FFog.7 mph100%29.56 "Hg2 mi
11:50 PM
Nov 27
46 °FFog.8 mph100%29.56 "Hg2 mi
11:20 PM46 °FFog.10 mph100%29.56 "Hg1 mi
10:50 PM46 °FFog.8 mph100%29.59 "Hg3 mi
10:20 PM46 °FMostly cloudy.6 mph93%29.56 "HgN/A
9:50 PM45 °FPartly cloudy.6 mph93%29.59 "HgN/A
9:20 PM45 °FPassing clouds.5 mph93%29.59 "HgN/A
8:50 PM45 °FPassing clouds.5 mph93%29.59 "HgN/A
8:20 PM45 °FPassing clouds.7 mph93%29.59 "HgN/A
7:50 PM43 °FPassing clouds.5 mph100%29.59 "HgN/A
7:20 PM43 °FPassing clouds.6 mph100%29.59 "Hg6 mi
6:50 PM41 °FPassing clouds.6 mph100%29.56 "Hg6 mi
6:20 PM43 °FPassing clouds.7 mph100%29.56 "HgN/A
5:50 PM43 °FPassing clouds.6 mph100%29.56 "Hg6 mi
5:20 PM43 °FSnow. Fog.6 mph93%29.56 "HgN/A
4:50 PM45 °FPassing clouds.6 mph93%29.56 "HgN/A
4:20 PM45 °FPassing clouds.7 mph93%29.56 "Hg4 mi
3:50 PM45 °FScattered clouds.5 mph93%29.56 "HgN/A
3:20 PM46 °FBroken clouds.2 mph93%29.56 "HgN/A
2:50 PM46 °FBroken clouds.3 mph93%29.56 "HgN/A
2:20 PM46 °FPartly sunny.3 mph93%29.56 "HgN/A
1:50 PM46 °FPartly sunny.6 mph93%29.56 "HgN/A
1:20 PM46 °FPartly sunny.5 mph93%29.56 "HgN/A
12:50 PM46 °FBroken clouds.3 mph93%29.56 "Hg6 mi
12:20 PM45 °FMostly cloudy.3 mph100%29.59 "Hg6 mi
11:50 AM45 °FMostly cloudy.3 mph100%29.59 "Hg4 mi
11:20 AM45 °FDrizzle. Mostly cloudy.3 mph100%29.59 "Hg4 mi
10:50 AM45 °FFog.3 mph100%29.59 "Hg3 mi
10:20 AM45 °FFog.5 mph100%29.59 "Hg3 mi
9:50 AM45 °FFog.5 mph100%29.59 "Hg3 mi
9:20 AM45 °FFog.5 mph100%29.59 "Hg2 mi
8:50 AM45 °FFog.3 mph100%29.59 "Hg2 mi
8:20 AM45 °FFog.3 mph100%29.59 "Hg1 mi
7:50 AM45 °FSnow. Fog.3 mph100%29.59 "Hg3 mi
7:20 AM45 °FFog.2 mph100%29.62 "Hg1 mi
6:50 AM45 °FDrizzle. Fog.No wind100%29.62 "Hg1 mi
6:20 AM45 °FDrizzle. Fog.2 mph100%29.62 "Hg1 mi
Weather by CustomWeather, © 2014

See weather overviewHow to use our weather pages